| time (UTC) | temp C | wind direction | speed KPH | gust KPH | rain 1hr cm | rain 24hr cm | rain mn cm | humidity % | barometer mb |
| 20260508085012 | 3 | 197 | 1.6 | 3.2 | 0.00 | 0.00 | 0.00 | 80 | 1016.8 |
| 20260508084529 | 3 | 0 | 1.6 | 6.4 | 0.00 | 0.00 | 0.00 | 80 | 1016.8 |
| 20260508084011 | 3 | 219 | 1.6 | 6.4 | 0.00 | 0.00 | 0.00 | 78 | 1017.0 |
| 20260508083514 | 3 | 236 | 1.6 | 6.4 | 0.00 | 0.00 | 0.00 | 77 | 1016.8 |
| 20260508083029 | 3 | 291 | 1.6 | 6.4 | 0.00 | 0.00 | 0.00 | 76 | 1016.9 |
| 20260508082515 | 3 | 298 | 3.2 | 6.4 | 0.00 | 0.00 | 0.00 | 74 | 1016.9 |
| 20260508082015 | 3 | 348 | 1.6 | 4.8 | 0.00 | 0.00 | 0.00 | 73 | 1016.9 |
| 20260508081528 | 3 | 301 | 0.0 | 3.2 | 0.00 | 0.00 | 0.00 | 74 | 1017.0 |
| 20260508081014 | 4 | 302 | 0.0 | 4.8 | 0.00 | 0.00 | 0.00 | 75 | 1017.0 |
| 20260508080510 | 4 | 296 | 0.0 | 4.8 | 0.00 | 0.00 | 0.00 | 75 | 1017.0 |
| 20260508080028 | 4 | 277 | 1.6 | 4.8 | 0.00 | 0.00 | 0.00 | 76 | 1016.9 |
| 20260508075511 | 4 | 0 | 0.0 | 4.8 | 0.00 | 0.00 | 0.00 | 76 | 1016.8 |
| 20260508075011 | 4 | 344 | 1.6 | 4.8 | 0.00 | 0.00 | 0.00 | 76 | 1016.8 |
| 20260508074529 | 4 | 0 | 1.6 | 4.8 | 0.00 | 0.00 | 0.00 | 76 | 1016.8 |
| 20260508074010 | 4 | 349 | 3.2 | 4.8 | 0.00 | 0.00 | 0.00 | 76 | 1017.1 |
| 20260508073510 | 4 | 339 | 1.6 | 6.4 | 0.00 | 0.00 | 0.00 | 75 | 1017.0 |
| 20260508073034 | 4 | 23 | 1.6 | 6.4 | 0.00 | 0.00 | 0.00 | 75 | 1017.0 |
| 20260508072512 | 5 | 337 | 3.2 | 6.4 | 0.00 | 0.00 | 0.00 | 75 | 1017.0 |
| 20260508072011 | 5 | 335 | 1.6 | 4.8 | 0.00 | 0.00 | 0.00 | 75 | 1017.0 |
| 20260508071527 | 5 | 0 | 0.0 | 1.6 | 0.00 | 0.00 | 0.00 | 74 | 1017.1 |
| 20260508071014 | 5 | 325 | 0.0 | 3.2 | 0.00 | 0.00 | 0.00 | 74 | 1017.0 |
| 20260508070513 | 5 | 0 | 0.0 | 4.8 | 0.00 | 0.00 | 0.00 | 74 | 1017.1 |
| 20260508070029 | 5 | 325 | 1.6 | 6.4 | 0.00 | 0.00 | 0.00 | 73 | 1017.1 |
| 20260508065510 | 5 | 324 | 3.2 | 6.4 | 0.00 | 0.00 | 0.00 | 73 | 1017.1 |
| 20260508065019 | 5 | 329 | 1.6 | 6.4 | 0.00 | 0.00 | 0.00 | 73 | 1017.1 |
| 20260508064538 | 5 | 320 | 3.2 | 6.4 | 0.00 | 0.00 | 0.00 | 72 | 1017.2 |
| 20260508064012 | 5 | 345 | 4.8 | 6.4 | 0.00 | 0.00 | 0.00 | 72 | 1017.0 |
| 20260508063513 | 5 | 324 | 3.2 | 6.4 | 0.00 | 0.00 | 0.00 | 73 | 1017.2 |
| 20260508063035 | 5 | 350 | 3.2 | 6.4 | 0.00 | 0.00 | 0.00 | 73 | 1017.2 |
| 20260508062511 | 5 | 0 | 0.0 | 3.2 | 0.00 | 0.00 | 0.00 | 73 | 1017.2 |
| 20260508062010 | 5 | 26 | 0.0 | 3.2 | 0.00 | 0.00 | 0.00 | 74 | 1017.1 |
| 20260508061530 | 5 | 0 | 0.0 | 6.4 | 0.00 | 0.00 | 0.00 | 74 | 1017.0 |
| 20260508061012 | 5 | 0 | 1.6 | 6.4 | 0.00 | 0.00 | 0.00 | 75 | 1017.0 |
| 20260508060510 | 5 | 351 | 1.6 | 6.4 | 0.00 | 0.00 | 0.00 | 76 | 1016.8 |
| 20260508060029 | 5 | 329 | 0.0 | 6.4 | 0.00 | 0.00 | 0.00 | 76 | 1016.8 |
| 20260508055512 | 5 | 0 | 0.0 | 6.4 | 0.00 | 0.00 | 0.00 | 76 | 1016.8 |
| 20260508055011 | 5 | 0 | 0.0 | 8.0 | 0.00 | 0.00 | 0.00 | 76 | 1016.8 |
| 20260508054531 | 5 | 331 | 1.6 | 8.0 | 0.00 | 0.00 | 0.00 | 76 | 1016.8 |
| 20260508054012 | 5 | 344 | 3.2 | 8.0 | 0.00 | 0.00 | 0.00 | 76 | 1016.8 |
| 20260508053512 | 5 | 0 | 1.6 | 9.7 | 0.00 | 0.00 | 0.00 | 75 | 1016.8 |
| 20260508053030 | 5 | 5 | 3.2 | 9.7 | 0.00 | 0.00 | 0.00 | 75 | 1016.8 |
| 20260508052514 | 5 | 336 | 0.0 | 4.8 | 0.00 | 0.00 | 0.00 | 74 | 1016.8 |
| 20260508052012 | 5 | 325 | 3.2 | 4.8 | 0.00 | 0.00 | 0.00 | 72 | 1016.7 |
| 20260508051529 | 5 | 333 | 1.6 | 4.8 | 0.00 | 0.00 | 0.00 | 71 | 1016.8 |
| 20260508051012 | 5 | 325 | 3.2 | 4.8 | 0.00 | 0.00 | 0.00 | 70 | 1016.9 |
| 20260508050512 | 6 | 325 | 1.6 | 4.8 | 0.00 | 0.00 | 0.00 | 69 | 1016.9 |
| 20260508050035 | 6 | 328 | 3.2 | 4.8 | 0.00 | 0.00 | 0.00 | 69 | 1016.9 |
| 20260508045513 | 6 | 321 | 1.6 | 6.4 | 0.00 | 0.00 | 0.00 | 69 | 1016.8 |
| 20260508045013 | 6 | 320 | 3.2 | 6.4 | 0.00 | 0.00 | 0.00 | 68 | 1016.8 |
| 20260508044527 | 6 | 326 | 3.2 | 6.4 | 0.00 | 0.00 | 0.00 | 68 | 1016.9 |
| 20260508044012 | 7 | 319 | 3.2 | 6.4 | 0.00 | 0.00 | 0.00 | 67 | 1016.9 |
| 20260508043511 | 7 | 311 | 1.6 | 6.4 | 0.00 | 0.00 | 0.00 | 67 | 1016.7 |
| 20260508043041 | 7 | 323 | 4.8 | 6.4 | 0.00 | 0.00 | 0.00 | 66 | 1016.8 |
| 20260508042513 | 7 | 311 | 1.6 | 3.2 | 0.00 | 0.00 | 0.00 | 65 | 1016.7 |
| 20260508042015 | 8 | 0 | 0.0 | 6.4 | 0.00 | 0.00 | 0.00 | 64 | 1016.7 |
| 20260508041528 | 8 | 320 | 1.6 | 8.0 | 0.00 | 0.00 | 0.00 | 64 | 1016.7 |
| 20260508041013 | 8 | 329 | 4.8 | 8.0 | 0.00 | 0.00 | 0.00 | 64 | 1016.6 |
| 20260508040515 | 8 | 326 | 4.8 | 9.7 | 0.00 | 0.00 | 0.00 | 63 | 1016.7 |
| 20260508040052 | 8 | 319 | 4.8 | 9.7 | 0.00 | 0.00 | 0.00 | 63 | 1016.7 |
| 20260508035510 | 8 | 342 | 3.2 | 8.0 | 0.00 | 0.00 | 0.00 | 63 | 1016.8 |
| 20260508035014 | 9 | 238 | 0.0 | 8.0 | 0.00 | 0.00 | 0.00 | 62 | 1016.7 |
| 20260508034531 | 9 | 205 | 3.2 | 8.0 | 0.00 | 0.00 | 0.00 | 62 | 1016.6 |
| 20260508034012 | 9 | 187 | 4.8 | 8.0 | 0.00 | 0.00 | 0.00 | 61 | 1016.4 |
| 20260508033512 | 10 | 171 | 1.6 | 6.4 | 0.00 | 0.00 | 0.00 | 60 | 1016.5 |
| 20260508033028 | 10 | 309 | 3.2 | 6.4 | 0.00 | 0.00 | 0.00 | 60 | 1016.6 |
| 20260508032511 | 10 | 279 | 1.6 | 6.4 | 0.00 | 0.00 | 0.00 | 59 | 1016.4 |
| 20260508032013 | 10 | 350 | 1.6 | 6.4 | 0.00 | 0.00 | 0.00 | 59 | 1016.2 |
| 20260508031530 | 10 | 143 | 0.0 | 9.7 | 0.00 | 0.00 | 0.00 | 58 | 1016.0 |
| 20260508031013 | 10 | 151 | 1.6 | 9.7 | 0.00 | 0.00 | 0.00 | 58 | 1015.9 |
| 20260508030514 | 10 | 205 | 4.8 | 9.7 | 0.00 | 0.00 | 0.00 | 58 | 1015.9 |
| 20260508030038 | 10 | 334 | 3.2 | 9.7 | 0.00 | 0.00 | 0.00 | 58 | 1015.9 |
| 20260508025511 | 10 | 15 | 4.8 | 8.0 | 0.00 | 0.00 | 0.00 | 57 | 1015.8 |
| 20260508025013 | 11 | 225 | 0.0 | 4.8 | 0.00 | 0.00 | 0.00 | 54 | 1015.9 |
| 20260508024529 | 11 | 250 | 1.6 | 4.8 | 0.00 | 0.00 | 0.00 | 54 | 1015.7 |
| 20260508024013 | 11 | 0 | 0.0 | 4.8 | 0.00 | 0.00 | 0.00 | 53 | 1015.6 |
| 20260508023512 | 11 | 135 | 3.2 | 8.0 | 0.00 | 0.00 | 0.00 | 54 | 1015.6 |
| 20260508023029 | 11 | 239 | 1.6 | 9.7 | 0.00 | 0.00 | 0.00 | 52 | 1015.7 |
| 20260508022511 | 11 | 175 | 4.8 | 14.5 | 0.00 | 0.00 | 0.00 | 52 | 1015.6 |
| 20260508022011 | 11 | 110 | 1.6 | 16.1 | 0.00 | 0.00 | 0.00 | 51 | 1015.4 |
| 20260508021528 | 11 | 15 | 8.0 | 17.7 | 0.00 | 0.00 | 0.00 | 50 | 1015.5 |
| 20260508021013 | 12 | 14 | 9.7 | 19.3 | 0.00 | 0.00 | 0.00 | 50 | 1015.3 |
| 20260508020510 | 12 | 15 | 9.7 | 20.9 | 0.00 | 0.00 | 0.00 | 50 | 1015.4 |
| 20260508020035 | 12 | 348 | 16.1 | 20.9 | 0.00 | 0.00 | 0.00 | 48 | 1015.3 |
| 20260508015514 | 12 | 334 | 12.9 | 19.3 | 0.00 | 0.00 | 0.00 | 48 | 1015.3 |
| 20260508015013 | 12 | 338 | 9.7 | 27.4 | 0.00 | 0.00 | 0.00 | 47 | 1015.3 |
| 20260508014530 | 12 | 15 | 12.9 | 33.8 | 0.00 | 0.00 | 0.00 | 45 | 1015.3 |
| 20260508014013 | 13 | 10 | 19.3 | 38.6 | 0.00 | 0.00 | 0.00 | 45 | 1015.2 |
| 20260508013512 | 13 | 350 | 24.1 | 38.6 | 0.00 | 0.00 | 0.00 | 44 | 1015.5 |
| 20260508013027 | 13 | 298 | 11.3 | 19.3 | 0.00 | 0.00 | 0.00 | 44 | 1015.3 |
| 20260508012515 | 13 | 303 | 11.3 | 20.9 | 0.00 | 0.00 | 0.00 | 43 | 1015.1 |
| 20260508012010 | 13 | 272 | 11.3 | 24.1 | 0.00 | 0.00 | 0.00 | 43 | 1015.1 |
| 20260508011530 | 13 | 261 | 9.7 | 24.1 | 0.00 | 0.00 | 0.00 | 43 | 1015.0 |
| 20260508011011 | 13 | 261 | 9.7 | 20.9 | 0.00 | 0.00 | 0.00 | 43 | 1015.0 |
| 20260508010512 | 13 | 274 | 9.7 | 20.9 | 0.00 | 0.00 | 0.00 | 44 | 1015.0 |
| 20260508010033 | 13 | 241 | 6.4 | 17.7 | 0.00 | 0.00 | 0.00 | 45 | 1014.9 |
| 20260508005511 | 14 | 283 | 6.4 | 20.9 | 0.00 | 0.00 | 0.00 | 43 | 1015.0 |
| 20260508005013 | 14 | 235 | 6.4 | 20.9 | 0.00 | 0.00 | 0.00 | 43 | 1014.9 |
| 20260508004528 | 14 | 283 | 9.7 | 19.3 | 0.00 | 0.00 | 0.00 | 44 | 1014.9 |
| 20260508004013 | 14 | 273 | 11.3 | 19.3 | 0.00 | 0.00 | 0.00 | 43 | 1015.0 |
| 20260508003512 | 14 | 275 | 9.7 | 20.9 | 0.00 | 0.00 | 0.00 | 44 | 1014.9 |
| 20260508003028 | 14 | 303 | 11.3 | 20.9 | 0.00 | 0.00 | 0.00 | 44 | 1015.0 |
| 20260508002509 | 14 | 289 | 12.9 | 20.9 | 0.00 | 0.00 | 0.00 | 43 | 1015.0 |
| 20260508002014 | 14 | 274 | 9.7 | 25.7 | 0.00 | 0.00 | 0.00 | 44 | 1015.1 |
| 20260508001549 | 15 | 272 | 9.7 | 25.7 | 0.00 | 0.00 | 0.00 | 42 | 1015.1 |
| 20260508001013 | 15 | 290 | 8.0 | 25.7 | 0.00 | 0.00 | 0.00 | 43 | 1015.2 |
| 20260508000511 | 15 | 272 | 11.3 | 25.7 | 0.00 | 0.00 | 0.00 | 42 | 1015.3 |
| 20260508000029 | 15 | 254 | 12.9 | 25.7 | 0.00 | 0.00 | 0.00 | 41 | 1015.3 |
| 20260507235513 | 15 | 246 | 8.0 | 30.6 | 0.00 | 0.00 | 0.00 | 39 | 1015.4 |
| 20260507235010 | 15 | 289 | 16.1 | 32.2 | 0.00 | 0.00 | 0.00 | 41 | 1015.5 |
| 20260507234526 | 16 | 286 | 17.7 | 35.4 | 0.00 | 0.00 | 0.00 | 41 | 1015.5 |
| 20260507234052 | 16 | 272 | 16.1 | 38.6 | 0.00 | 0.00 | 0.00 | 39 | 1015.3 |
| 20260507233510 | 16 | 297 | 22.5 | 38.6 | 0.00 | 0.00 | 0.00 | 39 | 1015.1 |
| 20260507233030 | 16 | 288 | 20.9 | 40.2 | 0.00 | 0.00 | 0.00 | 38 | 1015.3 |
| 20260507232513 | 16 | 271 | 16.1 | 40.2 | 0.00 | 0.00 | 0.00 | 36 | 1015.1 |
| 20260507232012 | 16 | 251 | 22.5 | 40.2 | 0.00 | 0.00 | 0.00 | 35 | 1015.1 |
| 20260507231534 | 16 | 286 | 17.7 | 40.2 | 0.00 | 0.00 | 0.00 | 36 | 1015.2 |
| 20260507231011 | 16 | 262 | 16.1 | 40.2 | 0.00 | 0.00 | 0.00 | 35 | 1015.1 |
| 20260507230515 | 16 | 217 | 17.7 | 38.6 | 0.00 | 0.00 | 0.00 | 34 | 1015.0 |
| 20260507230029 | 16 | 241 | 17.7 | 33.8 | 0.00 | 0.00 | 0.00 | 38 | 1015.0 |
| 20260507225515 | 16 | 287 | 17.7 | 38.6 | 0.00 | 0.00 | 0.00 | 36 | 1014.9 |
| 20260507225013 | 16 | 233 | 17.7 | 38.6 | 0.00 | 0.00 | 0.00 | 37 | 1015.0 |
| 20260507224537 | 16 | 284 | 22.5 | 38.6 | 0.00 | 0.00 | 0.00 | 37 | 1015.1 |
| 20260507224011 | 16 | 227 | 14.5 | 35.4 | 0.00 | 0.00 | 0.00 | 37 | 1015.0 |
| 20260507223515 | 16 | 271 | 11.3 | 24.1 | 0.00 | 0.00 | 0.00 | 36 | 1015.1 |
| 20260507223029 | 17 | 259 | 8.0 | 29.0 | 0.00 | 0.00 | 0.00 | 36 | 1015.1 |
| 20260507222512 | 17 | 255 | 14.5 | 29.0 | 0.00 | 0.00 | 0.00 | 35 | 1015.1 |
| 20260507222013 | 17 | 305 | 12.9 | 29.0 | 0.00 | 0.00 | 0.00 | 36 | 1015.1 |
| 20260507221528 | 17 | 267 | 14.5 | 35.4 | 0.00 | 0.00 | 0.00 | 38 | 1015.3 |
| 20260507221014 | 17 | 277 | 19.3 | 35.4 | 0.00 | 0.00 | 0.00 | 37 | 1015.4 |
| 20260507220510 | 17 | 244 | 16.1 | 29.0 | 0.00 | 0.00 | 0.00 | 39 | 1015.5 |
| 20260507220039 | 16 | 289 | 16.1 | 37.0 | 0.00 | 0.00 | 0.00 | 40 | 1015.5 |
| 20260507215513 | 16 | 273 | 14.5 | 37.0 | 0.00 | 0.00 | 0.00 | 39 | 1015.6 |
| 20260507215013 | 16 | 265 | 19.3 | 37.0 | 0.00 | 0.00 | 0.00 | 39 | 1015.6 |
| 20260507214535 | 16 | 242 | 17.7 | 33.8 | 0.00 | 0.00 | 0.00 | 40 | 1015.7 |
| 20260507214011 | 16 | 252 | 16.1 | 37.0 | 0.00 | 0.00 | 0.00 | 42 | 1015.7 |
| 20260507213513 | 16 | 277 | 16.1 | 37.0 | 0.00 | 0.00 | 0.00 | 40 | 1015.9 |
| 20260507213033 | 16 | 245 | 17.7 | 30.6 | 0.00 | 0.00 | 0.00 | 41 | 1016.0 |
| 20260507212511 | 16 | 300 | 19.3 | 30.6 | 0.00 | 0.00 | 0.00 | 39 | 1016.1 |
| 20260507212014 | 17 | 256 | 12.9 | 33.8 | 0.00 | 0.00 | 0.00 | 38 | 1016.2 |
| 20260507211534 | 17 | 243 | 19.3 | 40.2 | 0.00 | 0.00 | 0.00 | 39 | 1016.3 |
| 20260507211013 | 17 | 282 | 17.7 | 40.2 | 0.00 | 0.00 | 0.00 | 40 | 1016.4 |
| 20260507210514 | 16 | 270 | 20.9 | 40.2 | 0.00 | 0.00 | 0.00 | 39 | 1016.5 |
| 20260507210028 | 16 | 217 | 22.5 | 37.0 | 0.00 | 0.00 | 0.00 | 39 | 1016.6 |
| 20260507205513 | 17 | 232 | 12.9 | 29.0 | 0.00 | 0.00 | 0.00 | 39 | 1016.6 |
| 20260507205014 | 17 | 224 | 14.5 | 33.8 | 0.00 | 0.00 | 0.00 | 39 | 1016.6 |
| 20260507204528 | 16 | 237 | 8.0 | 33.8 | 0.00 | 0.00 | 0.00 | 44 | 1016.6 |
| 20260507204015 | 16 | 297 | 22.5 | 35.4 | 0.00 | 0.00 | 0.00 | 40 | 1016.8 |
| 20260507203510 | 16 | 304 | 16.1 | 38.6 | 0.00 | 0.00 | 0.00 | 41 | 1016.8 |
| 20260507203033 | 16 | 253 | 16.1 | 38.6 | 0.00 | 0.00 | 0.00 | 41 | 1017.0 |
| 20260507202509 | 16 | 248 | 24.1 | 38.6 | 0.00 | 0.00 | 0.00 | 42 | 1017.1 |
| 20260507202013 | 16 | 240 | 6.4 | 22.5 | 0.00 | 0.00 | 0.00 | 41 | 1017.2 |
| 20260507201527 | 16 | 281 | 11.3 | 33.8 | 0.00 | 0.00 | 0.00 | 41 | 1017.4 |
| 20260507201011 | 16 | 205 | 12.9 | 33.8 | 0.00 | 0.00 | 0.00 | 43 | 1017.5 |
| 20260507200511 | 15 | 263 | 20.9 | 33.8 | 0.00 | 0.00 | 0.00 | 42 | 1017.6 |
| 20260507200029 | 15 | 212 | 12.9 | 30.6 | 0.00 | 0.00 | 0.00 | 42 | 1017.6 |
| 20260507195513 | 16 | 195 | 14.5 | 30.6 | 0.00 | 0.00 | 0.00 | 44 | 1017.7 |
| 20260507195011 | 15 | 292 | 14.5 | 27.4 | 0.00 | 0.00 | 0.00 | 42 | 1017.9 |
| 20260507194528 | 15 | 302 | 11.3 | 30.6 | 0.00 | 0.00 | 0.00 | 43 | 1018.0 |
| 20260507194010 | 15 | 252 | 14.5 | 30.6 | 0.00 | 0.00 | 0.00 | 44 | 1017.9 |
| 20260507193510 | 15 | 289 | 12.9 | 27.4 | 0.00 | 0.00 | 0.00 | 43 | 1018.0 |
| 20260507193032 | 15 | 207 | 16.1 | 30.6 | 0.00 | 0.00 | 0.00 | 42 | 1018.1 |
| 20260507192513 | 15 | 261 | 11.3 | 33.8 | 0.00 | 0.00 | 0.00 | 40 | 1018.1 |
| 20260507192012 | 15 | 246 | 16.1 | 33.8 | 0.00 | 0.00 | 0.00 | 42 | 1018.2 |
| 20260507191530 | 15 | 245 | 17.7 | 41.8 | 0.00 | 0.00 | 0.00 | 43 | 1018.3 |
| 20260507191013 | 14 | 264 | 20.9 | 41.8 | 0.00 | 0.00 | 0.00 | 41 | 1018.4 |
| 20260507190513 | 13 | 322 | 14.5 | 29.0 | 0.00 | 0.00 | 0.00 | 48 | 1018.5 |
| 20260507190027 | 13 | 273 | 16.1 | 29.0 | 0.00 | 0.00 | 0.00 | 46 | 1018.7 |
| 20260507185516 | 12 | 281 | 14.5 | 22.5 | 0.00 | 0.00 | 0.00 | 44 | 1018.7 |
| 20260507185012 | 12 | 257 | 4.8 | 25.7 | 0.00 | 0.00 | 0.00 | 43 | 1018.8 |
| 20260507184527 | 12 | 219 | 8.0 | 25.7 | 0.00 | 0.00 | 0.00 | 43 | 1018.8 |
| 20260507184017 | 12 | 205 | 12.9 | 24.1 | 0.00 | 0.00 | 0.00 | 46 | 1018.9 |
| 20260507183512 | 12 | 157 | 11.3 | 22.5 | 0.00 | 0.00 | 0.00 | 45 | 1019.0 |
| 20260507183028 | 12 | 200 | 14.5 | 20.9 | 0.00 | 0.00 | 0.00 | 43 | 1019.1 |
| 20260507182513 | 11 | 180 | 9.7 | 19.3 | 0.00 | 0.00 | 0.00 | 43 | 1019.3 |
| 20260507182013 | 11 | 196 | 9.7 | 19.3 | 0.00 | 0.00 | 0.00 | 43 | 1019.3 |
| 20260507181530 | 11 | 196 | 9.7 | 20.9 | 0.00 | 0.00 | 0.00 | 43 | 1019.4 |
| 20260507181013 | 11 | 194 | 9.7 | 20.9 | 0.00 | 0.00 | 0.00 | 46 | 1019.5 |
| 20260507180513 | 11 | 257 | 11.3 | 17.7 | 0.00 | 0.00 | 0.00 | 46 | 1019.6 |
| 20260507180028 | 11 | 195 | 6.4 | 14.5 | 0.00 | 0.00 | 0.00 | 50 | 1019.6 |
| 20260507175512 | 10 | 228 | 6.4 | 14.5 | 0.00 | 0.00 | 0.00 | 49 | 1019.8 |
| 20260507175016 | 10 | 229 | 6.4 | 14.5 | 0.00 | 0.00 | 0.00 | 48 | 1019.9 |
| 20260507174538 | 10 | 170 | 3.2 | 12.9 | 0.00 | 0.00 | 0.00 | 52 | 1019.9 |
| 20260507174014 | 9 | 184 | 6.4 | 12.9 | 0.00 | 0.00 | 0.00 | 57 | 1020.0 |
| 20260507173514 | 9 | 236 | 3.2 | 12.9 | 0.00 | 0.00 | 0.00 | 55 | 1020.1 |
| 20260507173030 | 9 | 187 | 4.8 | 12.9 | 0.00 | 0.00 | 0.00 | 57 | 1020.1 |
| 20260507172512 | 8 | 213 | 1.6 | 8.0 | 0.00 | 0.00 | 0.00 | 56 | 1020.2 |
| 20260507172012 | 8 | 189 | 1.6 | 6.4 | 0.00 | 0.00 | 0.00 | 58 | 1020.4 |
| 20260507171533 | 7 | 117 | 1.6 | 6.4 | 0.00 | 0.00 | 0.00 | 59 | 1020.6 |
| 20260507171013 | 6 | 349 | 3.2 | 6.4 | 0.00 | 0.00 | 0.00 | 65 | 1020.8 |
| 20260507170513 | 6 | 9 | 1.6 | 4.8 | 0.00 | 0.00 | 0.00 | 65 | 1020.9 |
| 20260507170040 | 5 | 0 | 0.0 | 4.8 | 0.00 | 0.00 | 0.00 | 68 | 1020.9 |
| 20260507165510 | 5 | 299 | 1.6 | 4.8 | 0.00 | 0.00 | 0.00 | 67 | 1021.0 |
| 20260507165012 | 5 | 228 | 0.0 | 3.2 | 0.00 | 0.00 | 0.00 | 66 | 1021.1 |
| 20260507164527 | 4 | 0 | 0.0 | 4.8 | 0.00 | 0.00 | 0.00 | 71 | 1021.1 |
| 20260507164015 | 3 | 0 | 0.0 | 4.8 | 0.00 | 0.00 | 0.00 | 71 | 1021.2 |
| 20260507163512 | 3 | 48 | 1.6 | 4.8 | 0.00 | 0.00 | 0.00 | 69 | 1021.3 |
| 20260507163027 | 3 | 119 | 0.0 | 4.8 | 0.00 | 0.00 | 0.00 | 70 | 1021.3 |
| 20260507162512 | 3 | 0 | 1.6 | 6.4 | 0.00 | 0.00 | 0.00 | 69 | 1021.4 |
| 20260507162012 | 3 | 86 | 1.6 | 6.4 | 0.00 | 0.00 | 0.00 | 70 | 1021.5 |
| 20260507161529 | 3 | 128 | 1.6 | 4.8 | 0.00 | 0.00 | 0.00 | 70 | 1021.6 |
| 20260507161013 | 3 | 90 | 1.6 | 4.8 | 0.00 | 0.00 | 0.00 | 70 | 1021.6 |
| 20260507160513 | 2 | 73 | 1.6 | 4.8 | 0.00 | 0.00 | 0.00 | 69 | 1021.5 |
| 20260507160032 | 2 | 91 | 1.6 | 4.8 | 0.00 | 0.00 | 0.00 | 71 | 1021.5 |
| 20260507155512 | 2 | 106 | 1.6 | 4.8 | 0.00 | 0.00 | 0.00 | 72 | 1021.6 |
| 20260507155010 | 2 | 0 | 0.0 | 3.2 | 0.00 | 0.00 | 0.00 | 72 | 1021.6 |
| 20260507154528 | 2 | 0 | 0.0 | 3.2 | 0.00 | 0.00 | 0.00 | 72 | 1021.7 |
| 20260507154014 | 2 | 0 | 0.0 | 3.2 | 0.00 | 0.00 | 0.00 | 73 | 1021.7 |
| 20260507153512 | 2 | 110 | 0.0 | 4.8 | 0.00 | 0.00 | 0.00 | 74 | 1021.7 |
| 20260507153029 | 2 | 0 | 0.0 | 6.4 | 0.00 | 0.00 | 0.00 | 75 | 1021.7 |
| 20260507152518 | 1 | 169 | 1.6 | 6.4 | 0.00 | 0.00 | 0.00 | 77 | 1021.7 |
| 20260507152015 | 1 | 161 | 1.6 | 6.4 | 0.00 | 0.00 | 0.00 | 78 | 1021.8 |
| 20260507151528 | 1 | 130 | 1.6 | 6.4 | 0.00 | 0.00 | 0.00 | 82 | 1021.8 |
| 20260507151012 | 1 | 166 | 1.6 | 6.4 | 0.00 | 0.00 | 0.00 | 85 | 1022.0 |
| 20260507150513 | 0 | 188 | 0.0 | 6.4 | 0.00 | 0.00 | 0.00 | 87 | 1022.0 |
| 20260507150034 | 0 | 172 | 3.2 | 6.4 | 0.00 | 0.00 | 0.00 | 89 | 1021.9 |
| 20260507145512 | 0 | 188 | 1.6 | 6.4 | 0.00 | 0.00 | 0.00 | 89 | 1021.9 |
| 20260507145013 | -1 | 134 | 3.2 | 8.0 | 0.00 | 0.00 | 0.00 | 90 | 1022.0 |
| 20260507144530 | -1 | 172 | 3.2 | 8.0 | 0.00 | 0.00 | 0.00 | 89 | 1022.0 |
| 20260507144013 | -1 | 141 | 3.2 | 8.0 | 0.00 | 0.00 | 0.00 | 89 | 1022.0 |
| 20260507143511 | -2 | 157 | 1.6 | 8.0 | 0.00 | 0.00 | 0.00 | 90 | 1022.0 |
| 20260507143034 | -2 | 137 | 0.0 | 4.8 | 0.00 | 0.00 | 0.00 | 90 | 1022.2 |
| 20260507142512 | -2 | 0 | 0.0 | 3.2 | 0.00 | 0.00 | 0.00 | 90 | 1022.3 |
| 20260507142012 | -2 | 0 | 0.0 | 1.6 | 0.00 | 0.00 | 0.00 | 90 | 1022.2 |
| 20260507141531 | -2 | 0 | 0.0 | 1.6 | 0.00 | 0.00 | 0.00 | 90 | 1021.9 |
| 20260507141014 | -3 | 0 | 0.0 | 3.2 | 0.00 | 0.00 | 0.00 | 90 | 1021.9 |
| 20260507140513 | -3 | 0 | 0.0 | 3.2 | 0.00 | 0.00 | 0.00 | 90 | 1022.0 |
| 20260507140032 | -3 | 134 | 1.6 | 3.2 | 0.00 | 0.00 | 0.00 | 90 | 1022.0 |
| 20260507135517 | -3 | 0 | 0.0 | 3.2 | 0.00 | 0.00 | 0.00 | 90 | 1022.1 |
| 20260507135017 | -3 | 0 | 0.0 | 0.0 | 0.00 | 0.00 | 0.00 | 90 | 1022.0 |
| 20260507134531 | -3 | 0 | 0.0 | 1.6 | 0.00 | 0.00 | 0.00 | 90 | 1021.9 |
| 20260507134015 | -3 | 0 | 0.0 | 1.6 | 0.00 | 0.00 | 0.00 | 90 | 1022.0 |
| 20260507133512 | -4 | 0 | 0.0 | 0.0 | 0.00 | 0.00 | 0.00 | 90 | 1021.9 |
| 20260507133030 | -4 | 0 | 0.0 | 1.6 | 0.00 | 0.00 | 0.00 | 90 | 1022.2 |
| 20260507132514 | -4 | 0 | 0.0 | 3.2 | 0.00 | 0.00 | 0.00 | 89 | 1022.1 |
| 20260507132011 | -4 | 0 | 0.0 | 3.2 | 0.00 | 0.00 | 0.00 | 89 | 1022.1 |
| 20260507131536 | -4 | 0 | 0.0 | 3.2 | 0.00 | 0.00 | 0.00 | 89 | 1022.1 |
| 20260507131011 | -5 | 46 | 1.6 | 3.2 | 0.00 | 0.00 | 0.00 | 89 | 1022.1 |
| 20260507130511 | -5 | 0 | 0.0 | 4.8 | 0.00 | 0.00 | 0.00 | 89 | 1022.2 |
| 20260507130027 | -5 | 0 | 0.0 | 4.8 | 0.00 | 0.00 | 0.00 | 89 | 1022.1 |
| 20260507125512 | -5 | 352 | 3.2 | 4.8 | 0.00 | 0.00 | 0.00 | 89 | 1022.0 |
| 20260507125014 | -5 | 0 | 0.0 | 0.0 | 0.00 | 0.00 | 0.00 | 89 | 1022.0 |
| 20260507124531 | -5 | 0 | 0.0 | 0.0 | 0.00 | 0.00 | 0.00 | 89 | 1022.0 |
| 20260507124011 | -5 | 0 | 0.0 | 3.2 | 0.00 | 0.00 | 0.00 | 88 | 1021.9 |
| 20260507123511 | -5 | 0 | 0.0 | 3.2 | 0.00 | 0.00 | 0.00 | 88 | 1022.0 |
| 20260507123028 | -5 | 0 | 0.0 | 6.4 | 0.00 | 0.00 | 0.00 | 88 | 1022.0 |
| 20260507122511 | -5 | 0 | 1.6 | 6.4 | 0.00 | 0.00 | 0.00 | 88 | 1022.0 |
| 20260507122014 | -5 | 186 | 1.6 | 4.8 | 0.00 | 0.00 | 0.00 | 88 | 1022.1 |
| 20260507121531 | -5 | 0 | 0.0 | 1.6 | 0.00 | 0.00 | 0.00 | 88 | 1022.0 |
| 20260507121013 | -5 | 0 | 0.0 | 3.2 | 0.00 | 0.00 | 0.00 | 88 | 1022.0 |
| 20260507120510 | -5 | 0 | 0.0 | 3.2 | 0.00 | 0.00 | 0.00 | 88 | 1021.9 |
| 20260507120037 | -5 | 346 | 0.0 | 6.4 | 0.00 | 0.00 | 0.00 | 88 | 1021.9 |
| 20260507115509 | -5 | 346 | 3.2 | 6.4 | 0.00 | 0.00 | 0.00 | 88 | 1021.9 |
| 20260507115011 | -5 | 315 | 1.6 | 6.4 | 0.00 | 0.00 | 0.00 | 88 | 1021.9 |
| 20260507114527 | -5 | 338 | 3.2 | 6.4 | 0.00 | 0.00 | 0.00 | 87 | 1021.9 |
| 20260507114013 | -5 | 277 | 0.0 | 4.8 | 0.00 | 0.00 | 0.00 | 87 | 1021.9 |
| 20260507113513 | -5 | 266 | 0.0 | 4.8 | 0.00 | 0.00 | 0.00 | 87 | 1022.0 |
| 20260507113031 | -5 | 0 | 0.0 | 0.0 | 0.00 | 0.00 | 0.00 | 87 | 1021.9 |
| 20260507112513 | -5 | 0 | 0.0 | 0.0 | 0.00 | 0.00 | 0.00 | 87 | 1021.9 |
| 20260507112014 | -5 | 0 | 0.0 | 1.6 | 0.00 | 0.00 | 0.00 | 87 | 1022.1 |
| 20260507111528 | -5 | 0 | 0.0 | 1.6 | 0.00 | 0.00 | 0.00 | 87 | 1022.1 |
| 20260507111009 | -5 | 0 | 0.0 | 1.6 | 0.00 | 0.00 | 0.00 | 87 | 1022.1 |
| 20260507110512 | -5 | 0 | 0.0 | 3.2 | 0.00 | 0.00 | 0.00 | 87 | 1022.1 |
| 20260507110031 | -5 | 275 | 0.0 | 3.2 | 0.00 | 0.00 | 0.00 | 87 | 1022.1 |
| 20260507105511 | -5 | 264 | 1.6 | 4.8 | 0.00 | 0.00 | 0.00 | 87 | 1022.1 |
| 20260507105012 | -5 | 0 | 0.0 | 6.4 | 0.00 | 0.00 | 0.00 | 87 | 1022.0 |
| 20260507104531 | -5 | 0 | 1.6 | 6.4 | 0.00 | 0.00 | 0.00 | 86 | 1022.0 |
| 20260507104014 | -5 | 344 | 1.6 | 4.8 | 0.00 | 0.00 | 0.00 | 86 | 1022.1 |
| 20260507103515 | -5 | 323 | 3.2 | 6.4 | 0.00 | 0.00 | 0.00 | 86 | 1022.2 |
| 20260507102517 | -5 | 0 | 0.0 | 0.0 | 0.00 | 0.00 | 0.00 | 86 | 1022.2 |
| 20260507102010 | -5 | 0 | 0.0 | 0.0 | 0.00 | 0.00 | 0.00 | 86 | 1022.1 |
| 20260507101012 | -5 | 0 | 0.0 | 3.2 | 0.00 | 0.00 | 0.00 | 85 | 1022.3 |
| 20260507100511 | -5 | 0 | 0.0 | 6.4 | 0.00 | 0.00 | 0.00 | 85 | 1022.3 |
| 20260507100037 | -5 | 315 | 0.0 | 6.4 | 0.00 | 0.00 | 0.00 | 85 | 1022.3 |
| 20260507095515 | -5 | 321 | 1.6 | 4.8 | 0.00 | 0.00 | 0.00 | 85 | 1022.3 |
| 20260507095013 | -5 | 325 | 1.6 | 4.8 | 0.00 | 0.00 | 0.00 | 85 | 1022.3 |
| 20260507094533 | -5 | 327 | 1.6 | 4.8 | 0.00 | 0.00 | 0.00 | 84 | 1022.4 |
| 20260507094012 | -5 | 327 | 0.0 | 3.2 | 0.00 | 0.00 | 0.00 | 84 | 1022.4 |
| 20260507093512 | -5 | 0 | 0.0 | 1.6 | 0.00 | 0.00 | 0.00 | 84 | 1022.3 |
| 20260507093030 | -5 | 0 | 0.0 | 1.6 | 0.00 | 0.00 | 0.00 | 83 | 1022.3 |
| 20260507092512 | -5 | 327 | 0.0 | 1.6 | 0.00 | 0.00 | 0.00 | 83 | 1022.4 |
| 20260507092012 | -5 | 327 | 0.0 | 1.6 | 0.00 | 0.00 | 0.00 | 83 | 1022.4 |
| 20260507091011 | -4 | 327 | 0.0 | 1.6 | 0.00 | 0.00 | 0.00 | 83 | 1022.4 |
| 20260507090515 | -4 | 0 | 0.0 | 0.0 | 0.00 | 0.00 | 0.00 | 83 | 1022.5 |
| 20260507090036 | -4 | 0 | 0.0 | 3.2 | 0.00 | 0.00 | 0.00 | 83 | 1022.3 |
| 20260507085511 | -4 | 0 | 0.0 | 4.8 | 0.00 | 0.00 | 0.00 | 83 | 1022.3 |